Location: Acequia del Cap
(41.7000°N, 0.6167°E)
Time: 01:16:12
(UTC+00:00)

Cosmos 2285 Rocket - Pass Details

Date: 07 August 2020
Orbit: 970 x 999 km, 74.0° (Epoch: 22 September)

Event Time Altitude Azimuth Distance (km) Brightness Sun altitude
Exits shadow 03:38:39 - 190° (S) 2,925 6.1 -13.7°
Reaches altitude 10° 03:39:13 10° 189° (S) 2,715 5.9 -13.6°
Maximum altitude 03:45:28 72° 106° (ESE) 1,020 4.2 -12.6°
Drops below altitude 10° 03:51:44 10° 24° (NNE) 2,722 7.3 -11.7°
Sets 03:54:17 0° 22° (NNE) 3,672 8.0 -11.3°
